User: anonymous   Login
Location: Newark
(44.9333°N, 0.5667°E)
Time: 03:34:07
(UTC+00:00)
Language:

AO-92 - Orbit

View from above orbital plane
View from above orbital plane
View from above satellite
View from above satellite

Ground track
Ground track

The orbit data is extracted from the following two-line orbital elements,

1 43137U 18004AC  20057.86533475  .00000880  00000-0  39368-4 0  9995
2 43137  97.4576 129.7334 0010887  88.9498 271.2986 15.23904296118047
Epoch (UTC): 26 February 2020 20:46:04
Eccentricity: 0.0010887
inclination: 97.4576°
perigee height: 486 km
apogee height: 501 km
right ascension of ascending node: 129.7334°
argument of perigee: 88.9498°
revolutions per day: 15.23904296
mean anomaly at epoch: 271.2986°
orbit number at epoch: 11804

The dashed part of the orbit path shows where the satellite is in the earth's shadow,  

DLR